Location: Juzet
(42.9779°N, 0.7597°E)
Time: 18:13:24
(UTC+00:00)

Gbstr 26 Del rocket - Pass Details

Date: 14 July 2020
Orbit: 492 x 1264 km, 51.8° (Epoch: 13 August)

Event Time Altitude Azimuth Distance (km) Brightness Sun altitude
Rises 03:23:58 0° 301° (WNW) 2,769 6.2 -10.6°
Reaches altitude 10° 03:26:03 10° 297° (WNW) 1,946 5.4 -10.3°
Maximum altitude 03:30:24 59° 218° (SW) 788 3.3 -9.7°
Drops below altitude 10° 03:35:44 10° 140° (SE) 2,375 6.1 -9.0°
Sets 03:38:31 0° 137° (SE) 3,443 6.9 -8.6°
